FW8286 Weather Reports


time (UTC)temp
C
wind
direction
speed
KPH
gust
KPH
rain 1hr
cm
rain 24hr
cm
rain mn
cm
humidity
%
barometer
mb
20260508125528 11 208 9.7 22.5 0.00 0.00 0.00 75 1014.0
20260508125028 11 248 9.7 22.5 0.00 0.00 0.00 76 1014.1
20260508124541 11 270 8.0 22.5 0.00 0.00 0.00 77 1014.1
20260508124027 11 263 6.4 22.5 0.00 0.00 0.00 76 1014.1
20260508123531 11 207 8.0 19.3 0.00 0.00 0.00 76 1014.1
20260508123056 10 235 4.8 19.3 0.00 0.00 0.00 76 1014.0
20260508122527 10 223 9.7 19.3 0.00 0.00 0.00 77 1014.1
20260508122027 10 250 6.4 16.1 0.00 0.00 0.00 78 1014.0
20260508121540 10 244 6.4 16.1 0.00 0.00 0.00 79 1014.0
20260508121027 10 209 6.4 16.1 0.00 0.00 0.00 79 1013.8
20260508120527 9 221 8.0 16.1 0.00 0.00 0.00 80 1013.8
20260508120052 9 222 8.0 16.1 0.00 0.00 0.00 81 1013.7
20260508115527 8 217 8.0 17.7 0.00 0.00 0.00 83 1013.7
20260508115027 8 187 9.7 17.7 0.00 0.00 0.00 85 1013.6
20260508114542 8 200 9.7 17.7 0.00 0.00 0.00 86 1013.5
20260508114028 8 191 8.0 12.9 0.00 0.00 0.00 87 1013.5
20260508113529 7 182 6.4 11.3 0.00 0.00 0.00 87 1013.4
20260508113059 7 192 6.4 9.7 0.00 0.00 0.00 88 1013.6
20260508112531 7 183 6.4 9.7 0.00 0.00 0.00 88 1013.6
20260508112027 7 195 4.8 11.3 0.00 0.00 0.00 88 1013.6
20260508111546 7 178 6.4 11.3 0.00 0.00 0.00 88 1013.4
20260508111028 7 198 6.4 9.7 0.00 0.00 0.00 88 1013.5
20260508110528 6 194 4.8 9.7 0.00 0.00 0.00 87 1013.5
20260508110050 7 183 4.8 9.7 0.00 0.00 0.00 87 1013.2
20260508105527 7 181 4.8 12.9 0.00 0.00 0.00 87 1013.3
20260508105027 7 183 6.4 12.9 0.00 0.00 0.00 87 1013.3
20260508104544 7 173 8.0 12.9 0.00 0.00 0.00 87 1013.4
20260508104027 7 190 8.0 16.1 0.00 0.00 0.00 86 1013.1
20260508103529 7 180 8.0 16.1 0.00 0.00 0.00 86 1013.1
20260508103053 7 192 9.7 17.7 0.00 0.00 0.00 86 1013.2
20260508102527 7 200 9.7 19.3 0.00 0.00 0.00 86 1013.2
20260508102028 7 196 11.3 19.3 0.00 0.00 0.00 85 1013.3
20260508101541 7 209 8.0 17.7 0.00 0.00 0.00 85 1013.3
20260508101028 8 216 8.0 27.4 0.00 0.00 0.00 84 1014.0
20260508100528 8 226 6.4 27.4 0.00 0.00 0.00 84 1014.0
20260508100042 8 228 16.1 25.7 0.00 0.00 0.00 83 1013.9
20260508095527 8 215 6.4 19.3 0.00 0.00 0.00 84 1014.0
20260508095027 8 227 6.4 25.7 0.00 0.00 0.00 82 1013.8
20260508094540 8 216 8.0 35.4 0.00 0.00 0.00 81 1013.3
20260508094027 8 204 19.3 35.4 0.00 0.00 0.00 81 1013.2
20260508093527 8 186 14.5 25.7 0.00 0.00 0.00 83 1013.1
20260508093046 8 206 1.6 8.0 0.00 0.00 0.00 83 1013.7
20260508092527 8 205 3.2 8.0 0.00 0.00 0.00 83 1013.3
20260508092027 8 0 1.6 8.0 0.00 0.00 0.00 83 1013.3
20260508091552 8 208 4.8 9.7 0.00 0.00 0.00 83 1013.3
20260508091028 8 210 4.8 9.7 0.00 0.00 0.00 83 1013.3
20260508090528 8 205 4.8 8.0 0.00 0.00 0.00 83 1013.3
20260508090059 8 212 1.6 12.9 0.00 0.00 0.00 83 1013.3
20260508085527 8 248 4.8 16.1 0.00 0.00 0.00 83 1013.5
20260508085027 8 242 6.4 16.1 0.00 0.00 0.00 82 1013.5
20260508084545 8 261 6.4 16.1 0.00 0.00 0.00 82 1013.4
20260508084029 7 186 8.0 16.1 0.00 0.00 0.00 83 1013.5
20260508083528 7 205 6.4 16.1 0.00 0.00 0.00 83 1013.4
20260508083042 7 243 4.8 17.7 0.00 0.00 0.00 83 1013.7
20260508082529 7 228 6.4 17.7 0.00 0.00 0.00 84 1013.6
20260508082030 7 211 4.8 14.5 0.00 0.00 0.00 84 1013.6
20260508081543 7 208 6.4 14.5 0.00 0.00 0.00 84 1013.6
20260508081030 7 202 4.8 12.9 0.00 0.00 0.00 84 1013.7
20260508080531 7 204 6.4 19.3 0.00 0.00 0.00 83 1013.6
20260508080044 7 219 6.4 19.3 0.00 0.00 0.00 83 1013.6
20260508075528 7 212 9.7 14.5 0.00 0.00 0.00 84 1013.6
20260508075027 7 205 8.0 14.5 0.00 0.00 0.00 84 1013.6
20260508074545 7 193 8.0 14.5 0.00 0.00 0.00 84 1013.7
20260508074031 7 192 6.4 14.5 0.00 0.00 0.00 84 1013.6
20260508073527 7 192 8.0 14.5 0.00 0.00 0.00 84 1013.7
20260508073101 7 200 6.4 12.9 0.00 0.00 0.00 84 1013.7
20260508072534 7 196 6.4 16.1 0.00 0.00 0.00 84 1013.7
20260508072029 7 196 8.0 16.1 0.00 0.00 0.00 84 1013.7
20260508071549 7 200 8.0 24.1 0.00 0.00 0.00 84 1013.9
20260508071031 7 204 9.7 24.1 0.00 0.00 0.00 84 1013.9
20260508070528 7 219 9.7 17.7 0.00 0.00 0.00 84 1013.9
20260508070049 7 190 11.3 17.7 0.00 0.00 0.00 83 1014.0
20260508065529 7 204 9.7 19.3 0.00 0.00 0.00 83 1014.0
20260508065028 7 205 12.9 20.9 0.00 0.00 0.00 83 1013.8
20260508064546 7 219 12.9 22.5 0.00 0.00 0.00 83 1013.9
20260508064028 8 213 12.9 32.2 0.00 0.00 0.00 83 1013.9
20260508063528 8 211 14.5 32.2 0.00 0.00 0.00 82 1014.0
20260508063044 8 215 19.3 48.3 0.00 0.00 0.00 82 1013.9
20260508062528 8 206 22.5 48.3 0.00 0.00 0.00 81 1013.7
20260508062028 8 232 14.5 38.6 0.00 0.00 0.00 79 1013.9
20260508061542 9 209 14.5 38.6 0.00 0.00 0.00 75 1014.2
20260508061027 9 202 20.9 30.6 0.00 0.00 0.00 73 1014.0
20260508060528 9 212 14.5 27.4 0.00 0.00 0.00 74 1014.1
20260508060048 8 216 9.7 17.7 0.00 0.00 0.00 74 1014.0
20260508055527 8 222 9.7 17.7 0.00 0.00 0.00 74 1014.0
20260508055027 8 199 8.0 17.7 0.00 0.00 0.00 76 1014.0
20260508054545 8 199 6.4 14.5 0.00 0.00 0.00 77 1014.1
20260508054027 7 188 8.0 12.9 0.00 0.00 0.00 78 1014.2
20260508053532 7 199 8.0 12.9 0.00 0.00 0.00 78 1014.2
20260508053101 7 198 6.4 11.3 0.00 0.00 0.00 80 1014.1
20260508052528 6 184 6.4 9.7 0.00 0.00 0.00 82 1014.2
20260508052028 6 178 4.8 8.0 0.00 0.00 0.00 83 1014.3
20260508051544 6 182 4.8 6.4 0.00 0.00 0.00 83 1014.3
20260508051028 6 185 3.2 4.8 0.00 0.00 0.00 83 1014.3
20260508050528 6 186 3.2 4.8 0.00 0.00 0.00 83 1014.4
20260508050044 6 186 3.2 4.8 0.00 0.00 0.00 83 1014.3
20260508045530 6 186 3.2 4.8 0.00 0.00 0.00 83 1014.5
20260508045027 6 186 1.6 4.8 0.00 0.00 0.00 83 1014.5
20260508044541 6 186 0.0 3.2 0.00 0.00 0.00 82 1014.5
20260508044101 7 0 0.0 4.8 0.00 0.00 0.00 81 1014.4
20260508043527 7 186 1.6 4.8 0.00 0.00 0.00 80 1014.5
20260508043042 7 186 1.6 4.8 0.00 0.00 0.00 80 1014.4
20260508042527 7 186 1.6 6.4 0.00 0.00 0.00 79 1014.3
20260508042027 7 186 3.2 6.4 0.00 0.00 0.00 79 1014.3
20260508041607 7 186 3.2 6.4 0.00 0.00 0.00 78 1014.4
20260508041027 7 187 3.2 6.4 0.00 0.00 0.00 77 1014.4
20260508040528 8 187 3.2 6.4 0.00 0.00 0.00 77 1014.5
20260508040105 8 187 3.2 9.7 0.00 0.00 0.00 75 1014.5
20260508035529 8 187 4.8 9.7 0.00 0.00 0.00 75 1014.4
20260508035032 8 188 4.8 9.7 0.00 0.00 0.00 75 1014.4
20260508034542 8 192 6.4 8.0 0.00 0.00 0.00 74 1014.6
20260508034028 8 202 4.8 8.0 0.00 0.00 0.00 75 1014.7
20260508033527 8 201 4.8 9.7 0.00 0.00 0.00 74 1014.9
20260508033042 8 206 4.8 9.7 0.00 0.00 0.00 72 1014.6
20260508032528 9 211 3.2 9.7 0.00 0.00 0.00 71 1014.8
20260508032027 9 211 3.2 9.7 0.00 0.00 0.00 70 1014.7
20260508031541 9 210 6.4 12.9 0.00 0.00 0.00 69 1014.8
20260508031027 9 232 1.6 16.1 0.00 0.00 0.00 69 1014.8
20260508030530 9 205 8.0 24.1 0.00 0.00 0.00 69 1014.8
20260508030041 9 212 9.7 24.1 0.00 0.00 0.00 68 1014.9
20260508025529 9 227 12.9 22.5 0.00 0.00 0.00 67 1015.0
20260508025028 10 210 6.4 24.1 0.00 0.00 0.00 68 1015.1
20260508024550 10 211 11.3 25.7 0.00 0.00 0.00 67 1015.0
20260508024029 10 225 11.3 25.7 0.00 0.00 0.00 65 1015.1
20260508023528 10 217 8.0 25.7 0.00 0.00 0.00 65 1015.0
20260508023042 9 228 8.0 25.7 0.00 0.00 0.00 66 1014.9
20260508022527 9 227 4.8 12.9 0.00 0.00 0.00 68 1014.9
20260508022028 8 211 4.8 9.7 0.00 0.00 0.00 68 1014.7
20260508021542 8 213 6.4 12.9 0.00 0.00 0.00 68 1014.7
20260508021028 8 213 4.8 14.5 0.00 0.00 0.00 69 1014.8
20260508020528 8 221 6.4 14.5 0.00 0.00 0.00 71 1014.6
20260508020046 8 193 8.0 12.9 0.00 0.00 0.00 73 1014.6
20260508015528 8 206 6.4 9.7 0.00 0.00 0.00 75 1014.5
20260508015027 7 204 3.2 8.0 0.00 0.00 0.00 79 1014.5
20260508014541 7 0 3.2 8.0 0.00 0.00 0.00 81 1014.5
20260508014027 7 360 4.8 8.0 0.00 0.00 0.00 81 1014.4
20260508013530 7 182 3.2 6.4 0.00 0.00 0.00 82 1014.3
20260508013050 7 0 0.0 3.2 0.00 0.00 0.00 80 1014.3
20260508012528 7 0 1.6 3.2 0.00 0.00 0.00 80 1014.2
20260508012027 7 343 1.6 4.8 0.00 0.00 0.00 80 1014.2
20260508011551 7 343 1.6 4.8 0.00 0.00 0.00 79 1014.2
20260508011027 7 343 3.2 4.8 0.00 0.00 0.00 79 1014.2
20260508010527 7 343 1.6 4.8 0.00 0.00 0.00 78 1014.1
20260508010041 7 0 0.0 0.0 0.00 0.00 0.00 76 1014.1
20260508005527 8 0 0.0 0.0 0.00 0.00 0.00 75 1014.0
20260508005030 8 0 0.0 0.0 0.00 0.00 0.00 74 1014.0
20260508004547 8 0 0.0 0.0 0.00 0.00 0.00 72 1014.1
20260508004028 8 0 0.0 0.0 0.00 0.00 0.00 72 1014.0
20260508003527 9 0 0.0 0.0 0.00 0.00 0.00 69 1014.0
20260508003044 9 0 0.0 0.0 0.00 0.00 0.00 66 1014.0
20260508002528 10 0 0.0 0.0 0.00 0.00 0.00 65 1014.0
20260508002029 10 0 0.0 0.0 0.00 0.00 0.00 65 1013.9
20260508001542 11 0 0.0 0.0 0.00 0.00 0.00 60 1013.9
20260508001027 11 0 0.0 3.2 0.00 0.00 0.00 57 1013.8
20260508000528 11 0 0.0 6.4 0.00 0.00 0.00 58 1013.8
20260508000040 11 344 3.2 6.4 0.00 0.00 0.00 57 1013.8
20260507235527 11 0 1.6 6.4 0.00 0.00 0.00 57 1013.8
20260507235027 11 344 1.6 6.4 0.00 0.00 0.00 56 1013.8
20260507234541 11 342 3.2 9.7 0.00 0.00 0.00 56 1013.8
20260507234027 11 342 3.2 9.7 0.00 0.00 0.00 57 1013.8
20260507233527 11 348 4.8 14.5 0.00 0.00 0.00 55 1013.7
20260507233059 12 336 4.8 14.5 0.00 0.00 0.00 54 1013.7
20260507232527 12 305 9.7 14.5 0.00 0.00 0.00 53 1013.7
20260507232029 12 295 4.8 19.3 0.00 0.00 0.00 51 1013.7
20260507231545 12 303 8.0 19.3 0.00 0.00 0.00 49 1013.7
20260507231028 12 306 6.4 17.7 0.00 0.00 0.00 49 1013.8
20260507230528 12 315 11.3 20.9 0.00 0.00 0.00 49 1013.7
20260507230043 12 277 12.9 20.9 0.00 0.00 0.00 48 1013.7
20260507225531 13 259 11.3 20.9 0.00 0.00 0.00 49 1013.7
20260507225031 13 299 9.7 20.9 0.00 0.00 0.00 49 1013.7
20260507224553 13 296 8.0 19.3 0.00 0.00 0.00 50 1013.8
20260507224027 13 339 9.7 25.7 0.00 0.00 0.00 49 1013.8
20260507223529 13 301 11.3 27.4 0.00 0.00 0.00 50 1013.8
20260507223041 13 319 12.9 27.4 0.00 0.00 0.00 48 1013.8
20260507222530 13 294 14.5 25.7 0.00 0.00 0.00 49 1013.8
20260507222027 13 338 9.7 24.1 0.00 0.00 0.00 50 1013.7
20260507221543 13 343 11.3 25.7 0.00 0.00 0.00 49 1013.7
20260507221027 13 283 14.5 25.7 0.00 0.00 0.00 47 1013.6
20260507220528 13 302 12.9 24.1 0.00 0.00 0.00 51 1013.8
20260507220042 13 332 8.0 22.5 0.00 0.00 0.00 52 1013.7
20260507215531 13 320 6.4 24.1 0.00 0.00 0.00 52 1013.7
20260507215028 13 307 12.9 24.1 0.00 0.00 0.00 49 1013.7
20260507214541 12 278 11.3 22.5 0.00 0.00 0.00 50 1013.7
20260507214031 12 299 14.5 25.7 0.00 0.00 0.00 49 1013.6
20260507213527 12 294 11.3 25.7 0.00 0.00 0.00 51 1013.6
20260507213100 13 257 11.3 30.6 0.00 0.00 0.00 49 1013.6
20260507212527 13 316 9.7 30.6 0.00 0.00 0.00 50 1013.5
20260507212027 13 292 22.5 38.6 0.00 0.00 0.00 48 1013.7
20260507211547 13 300 14.5 38.6 0.00 0.00 0.00 50 1013.6
20260507211030 13 292 16.1 27.4 0.00 0.00 0.00 50 1013.4
20260507210530 13 300 17.7 32.2 0.00 0.00 0.00 47 1013.4
20260507210049 13 292 17.7 32.2 0.00 0.00 0.00 48 1013.5
20260507205527 13 288 20.9 32.2 0.00 0.00 0.00 49 1013.5
20260507205027 13 276 12.9 29.0 0.00 0.00 0.00 49 1013.3
20260507204542 13 286 19.3 29.0 0.00 0.00 0.00 49 1013.2
20260507204026 13 227 8.0 27.4 0.00 0.00 0.00 52 1013.2
20260507203527 13 294 12.9 27.4 0.00 0.00 0.00 50 1013.2
20260507203044 13 276 11.3 25.7 0.00 0.00 0.00 52 1013.1
20260507202527 13 219 8.0 30.6 0.00 0.00 0.00 52 1013.1
20260507202029 13 312 14.5 35.4 0.00 0.00 0.00 53 1013.2
20260507201539 13 262 14.5 35.4 0.00 0.00 0.00 51 1013.2
20260507201027 13 269 16.1 35.4 0.00 0.00 0.00 53 1013.2
20260507200527 12 294 11.3 24.1 0.00 0.00 0.00 54 1013.3
20260507200048 12 261 12.9 27.4 0.00 0.00 0.00 55 1013.4
20260507195527 12 267 11.3 27.4 0.00 0.00 0.00 55 1013.3
20260507195028 12 305 19.3 27.4 0.00 0.00 0.00 52 1013.3
20260507194611 13 300 11.3 25.7 0.00 0.00 0.00 52 1013.3
20260507194027 13 233 11.3 27.4 0.00 0.00 0.00 53 1013.4
20260507193526 13 261 9.7 27.4 0.00 0.00 0.00 54 1013.5
20260507193044 13 297 11.3 22.5 0.00 0.00 0.00 55 1013.4
20260507192528 13 269 8.0 22.5 0.00 0.00 0.00 61 1013.7
20260507192027 13 225 12.9 32.2 0.00 0.00 0.00 55 1013.6
20260507191547 13 198 9.7 32.2 0.00 0.00 0.00 58 1013.5
20260507191027 13 265 12.9 27.4 0.00 0.00 0.00 57 1013.7
20260507190527 12 284 17.7 27.4 0.00 0.00 0.00 58 1013.7
20260507190052 12 263 16.1 29.0 0.00 0.00 0.00 59 1013.6
20260507185528 12 283 16.1 29.0 0.00 0.00 0.00 56 1013.7
20260507185027 13 292 14.5 27.4 0.00 0.00 0.00 55 1013.6
20260507184543 13 300 14.5 25.7 0.00 0.00 0.00 53 1013.6
20260507184027 13 220 9.7 22.5 0.00 0.00 0.00 57 1013.5
20260507183526 13 269 8.0 25.7 0.00 0.00 0.00 60 1013.7
20260507183048 13 210 9.7 29.0 0.00 0.00 0.00 56 1013.6
20260507182527 13 259 12.9 29.0 0.00 0.00 0.00 59 1013.8
20260507182027 12 290 9.7 29.0 0.00 0.00 0.00 59 1013.7
20260507181546 12 201 14.5 22.5 0.00 0.00 0.00 55 1013.7
20260507181030 12 276 8.0 25.7 0.00 0.00 0.00 58 1013.9
20260507180527 12 224 9.7 25.7 0.00 0.00 0.00 56 1014.0
20260507180040 12 304 12.9 25.7 0.00 0.00 0.00 57 1013.9
20260507175530 12 245 14.5 20.9 0.00 0.00 0.00 56 1014.0
20260507175029 12 292 11.3 22.5 0.00 0.00 0.00 56 1014.0
20260507174556 12 250 12.9 22.5 0.00 0.00 0.00 57 1014.0
20260507174028 12 251 11.3 17.7 0.00 0.00 0.00 58 1014.0
20260507173527 12 273 6.4 17.7 0.00 0.00 0.00 58 1014.1
20260507173113 12 274 8.0 22.5 0.00 0.00 0.00 59 1014.0
20260507172528 12 257 8.0 22.5 0.00 0.00 0.00 57 1014.1
20260507172028 12 203 9.7 25.7 0.00 0.00 0.00 60 1014.0
20260507171548 12 288 14.5 25.7 0.00 0.00 0.00 56 1014.1
20260507171028 12 268 8.0 24.1 0.00 0.00 0.00 60 1014.1
20260507170528 12 287 16.1 24.1 0.00 0.00 0.00 54 1014.2
20260507170043 13 266 6.4 22.5 0.00 0.00 0.00 63 1014.2
20260507165527 12 267 11.3 20.9 0.00 0.00 0.00 57 1014.2
20260507165030 12 348 8.0 20.9 0.00 0.00 0.00 60 1014.1
20260507164549 12 279 9.7 20.9 0.00 0.00 0.00 61 1014.3
20260507164027 12 261 8.0 17.7 0.00 0.00 0.00 57 1014.3
20260507163528 13 250 6.4 16.1 0.00 0.00 0.00 59 1014.1
20260507163040 13 275 6.4 19.3 0.00 0.00 0.00 59 1014.1
20260507162527 12 232 8.0 19.3 0.00 0.00 0.00 62 1014.1
20260507162027 12 229 4.8 19.3 0.00 0.00 0.00 60 1014.0
20260507161559 12 288 12.9 19.3 0.00 0.00 0.00 58 1014.1
20260507161028 13 249 8.0 25.7 0.00 0.00 0.00 57 1014.0
20260507160528 12 282 6.4 25.7 0.00 0.00 0.00 63 1014.2
20260507160045 12 259 11.3 25.7 0.00 0.00 0.00 62 1014.3
20260507155528 12 289 16.1 22.5 0.00 0.00 0.00 60 1014.2
20260507155028 12 271 11.3 24.1 0.00 0.00 0.00 61 1014.3
20260507154543 12 307 9.7 24.1 0.00 0.00 0.00 63 1014.3
20260507154027 12 276 12.9 24.1 0.00 0.00 0.00 60 1014.4
20260507153527 11 296 16.1 24.1 0.00 0.00 0.00 60 1014.4
20260507153043 12 265 8.0 19.3 0.00 0.00 0.00 68 1014.3
20260507152530 12 312 12.9 17.7 0.00 0.00 0.00 67 1014.4
20260507152028 12 227 3.2 22.5 0.00 0.00 0.00 68 1014.2
20260507151541 12 261 9.7 22.5 0.00 0.00 0.00 67 1014.4
20260507151028 12 238 6.4 16.1 0.00 0.00 0.00 64 1014.4
20260507150528 11 226 8.0 16.1 0.00 0.00 0.00 68 1014.4
20260507150042 11 293 8.0 16.1 0.00 0.00 0.00 67 1014.4
20260507145527 11 200 4.8 17.7 0.00 0.00 0.00 68 1014.4
20260507145027 11 263 6.4 17.7 0.00 0.00 0.00 69 1014.4
20260507144546 11 236 6.4 12.9 0.00 0.00 0.00 73 1014.4
20260507144028 11 200 6.4 16.1 0.00 0.00 0.00 69 1014.4
20260507143528 11 233 3.2 16.1 0.00 0.00 0.00 73 1014.4
20260507143043 11 308 6.4 19.3 0.00 0.00 0.00 70 1014.3
20260507142528 11 275 8.0 19.3 0.00 0.00 0.00 72 1014.3
20260507142025 11 262 3.2 16.1 0.00 0.00 0.00 72 1014.3
20260507141551 11 301 6.4 12.9 0.00 0.00 0.00 73 1014.2
20260507141028 10 240 4.8 16.1 0.00 0.00 0.00 73 1014.5
20260507140528 10 267 4.8 16.1 0.00 0.00 0.00 73 1014.5
20260507140048 10 278 8.0 14.5 0.00 0.00 0.00 74 1014.6
20260507135528 10 249 4.8 12.9 0.00 0.00 0.00 75 1014.5
20260507135027 10 223 8.0 12.9 0.00 0.00 0.00 75 1014.4
20260507134545 10 221 6.4 14.5 0.00 0.00 0.00 75 1014.6
20260507134028 9 259 8.0 14.5 0.00 0.00 0.00 75 1014.6
20260507133529 9 261 6.4 12.9 0.00 0.00 0.00 77 1014.7
20260507133042 9 224 6.4 16.1 0.00 0.00 0.00 76 1014.6
20260507132529 8 211 8.0 16.1 0.00 0.00 0.00 77 1014.6
20260507132027 8 213 6.4 14.5 0.00 0.00 0.00 78 1014.7
20260507131541 8 215 8.0 14.5 0.00 0.00 0.00 77 1014.7
20260507131030 8 187 4.8 16.1 0.00 0.00 0.00 80 1014.8
20260507130532 8 207 6.4 16.1 0.00 0.00 0.00 79 1014.8
20260507130041 8 223 6.4 16.1 0.00 0.00 0.00 80 1014.8